Regional Weather Roundup
Issued by NWS Albany, NY

Home | Current Version | Previous Version | Text Only | Print | Product List | Glossary On
Versions: 1 2 3 4 5 6 7 8 9 10 11 12 13 14 15 16 17 18 19 20 21 22 23 24 25 26 27 28 29 30 31 32 33 34 35 36 37 38 39 40 41 42 43 44 45 46 47 48 49 50
000
ASUS41 KALY 271110
RWRALY

NEW YORK STATE HOURLY WEATHER ROUNDUP
NATIONAL WEATHER SERVICE ALBANY NY
700 AM EDT FRI MAY 27 2016

NOTE: "FAIR" INDICATES FEW OR NO CLOUDS BELOW 12,000 FEET WITH NO
SIGNIFICANT WEATHER AND/OR NO OBSTRUCTIONS TO VISIBILITY.

NYZ032-033-038>043-046>054-057>066-NYZ062>081-082-084-271200-
EAST


CITY           SKY/WX    TMP DP  RH WIND       PRES   REMARKS
ALBANY         PTSUNNY   72  52  49 S9        30.02S
GLENS FALLS    MOSUNNY   67  61  81 CALM      30.01S
POUGHKEEPSIE   CLOUDY    68  59  73 CALM      30.04S
MONTGOMERY     CLOUDY    66  60  81 CALM      30.05S
WHITE PLAINS   CLOUDY    66  57  72 CALM      30.07S
ISLIP          MOSUNNY   65  61  87 S6        30.08S
NEW YORK CITY  CLOUDY    73  65  75 S6        30.05F
CENTRAL PARK   CLOUDY    75  61  61 CALM      30.08F
$$

NYZ005>009-017-018-044>046-055-056-271200-
CENTRAL


CITY           SKY/WX    TMP DP  RH WIND       PRES   REMARKS
FULTON         MOSUNNY   67  62  84 VRB5      29.99R
SYRACUSE       CLOUDY    72  63  73 SW6       29.99R
ROME           MOSUNNY   69  61  75 E5        30.02R
ELMIRA         MOSUNNY   62  58  86 CALM      30.04S
BINGHAMTON     CLOUDY    66  61  84 S6        30.07R
MONTICELLO     PTSUNNY   64  61  88 CALM      30.11R
$$

NYZ026>034-041>043-087-271200-
NORTH


CITY           SKY/WX    TMP DP  RH WIND       PRES   REMARKS
WATERTOWN      CLOUDY    68  60  75 S5        29.96R
FORT DRUM      NOT AVBL
MASSENA        CLOUDY    62  52  69 CALM      29.95F
SARANAC LAKE   CLOUDY    58  53  84 CALM      30.01R
PLATTSBURGH    CLOUDY    62  57  83 CALM      29.97R
$$

NYZ001>004-010>016-019>021-085-271200-
WEST


CITY           SKY/WX    TMP DP  RH WIND       PRES   REMARKS
NIAGARA FALLS  MOSUNNY   69  63  81 SW8       29.98R
BUFFALO        MOSUNNY   70  64  81 S8        29.99R
DUNKIRK        PTSUNNY   70  64  81 S10       30.01R
JAMESTOWN      CLOUDY    64  61  88 S6        30.06R
WELLSVILLE     MOSUNNY   66  62  87 SW8       30.10R
ROCHESTER      PTSUNNY   68  63  84 SW7       29.99R
PENN YAN       SUNNY     66  60  81 SW6       30.03R
$$

             KEY
       WCI = WIND CHILL INDEX
       VSB = VISIBILITY
       HX  = HEAT INDEX
$$



USA.gov is the U.S. government's official web portal to all federal, state and local government web resources and services.